Location: Vlissingen
(51.4500°N, 3.5830°E)
Time: 01:12:24
(UTC+01:00)

Daily predictions for brighter satellites

Satellite Brightness Start Highest point End
(mag) Time Altitude Azimuth Time Altitude Azimuth Time Altitude Azimuth
Cosmos 2344 4.2 02:59:30 57° NNE 02:59:30 57° NNE 03:07:26 10° NE
Cosmos 2278 Rocket 4.3 03:10:22 22° NNE 03:10:22 22° NNE 03:12:18 10° NNE
ADEOS Rocket 4.4 03:02:39 10° NNE 03:07:47 37° ENE 03:07:47 37° ENE
CZ-2D R/B 4.3 03:14:29 10° NNE 03:16:18 22° NNE 03:16:18 22° NNE
Resurs 1-4 Rocket 4.2 03:21:12 10° NNE 03:23:01 22° NNE 03:23:01 22° NNE
Lacrosse 5 rocket 4.4 04:02:45 11° ENE 04:02:45 11° ENE 04:02:56 10° ENE
ATLAS CENTAUR R/B 4.2 04:07:01 36° SE 04:07:01 36° SE 04:13:53 10° SE
Okean O Rocket 3.3 04:18:25 10° NNE 04:21:00 31° NE 04:21:00 31° NE
Cosmos 2279 Rocket 4.0 04:24:39 74° NNE 04:24:39 74° NNE 04:30:20 10° N
MOS 1 Rocket 3.7 04:33:45 10° NNE 04:39:03 78° ENE 04:39:03 78° ENE
USA 234 4.1 04:36:34 10° ENE 04:42:42 41° SE 04:44:59 31° S
Iridium 4 Rocket 3.8 04:40:00 10° N 04:44:54 67° NNW 04:44:54 67° NNW
ADEOS II 2.4 04:43:19 10° NNE 04:48:34 63° ESE 04:49:57 46° SSE
IRAS Rocket 4.2 04:44:54 10° NNE 04:50:26 78° ESE 04:51:18 63° S
Cosmos 2278 Rocket 3.7 04:52:12 23° NNW 04:52:12 23° NNW 04:56:02 10° NNE
Cosmos 2369 Rocket 2.5 04:52:51 45° S 04:54:24 62° ESE 05:00:00 10° NE
ADEOS Rocket 3.5 04:48:08 10° N 04:54:44 48° WNW 04:54:44 48° WNW
Thor Agena Rocket 4.0 04:51:15 10° SSE 04:56:22 59° ENE 05:01:27 10° N
Cosmos 1371 Rocket 4.4 04:56:17 41° SSE 04:57:47 58° ESE 05:02:53 10° NNE
ARIANE 5 R/B 4.4 04:55:42 10° N 04:57:14 17° NNW 04:57:14 17° NNW
CZ-2D R/B 3.8 04:55:11 10° N 04:57:38 21° NNW 04:57:38 21° NNW
Lacrosse 4 Rocket 3.4 05:05:21 18° N 05:05:21 18° N 05:07:06 10° NNE
Resurs 1-4 Rocket 3.8 05:01:49 10° N 05:04:06 19° NNW 05:04:06 19° NNW
Sich 1 Rocket 3.9 05:02:03 10° N 05:06:39 69° ENE 05:11:08 10° SSE
Cosmos 1833 4.1 05:04:17 21° NNW 05:08:06 90° WSW 05:13:43 10° SSE
Okean-O 3.5 05:10:13 10° NNE 05:14:33 48° E 05:18:48 10° S
Cosmos 1908 Rocket 3.6 05:10:43 10° N 05:15:13 79° ENE 05:19:42 10° SSE
PSLV R/B 3.4 05:15:12 10° N 05:19:08 71° NW 05:19:08 71° NW
Cosmos 1782 Rocket 4.2 05:16:06 10° N 05:20:32 56° ENE 05:24:55 10° SSE
Cosmos 407 Rocket 3.4 05:19:40 10° NNW 05:25:00 65° WSW 05:30:17 10° S
Lacrosse 5 3.4 05:23:44 17° S 05:26:54 32° SE 05:31:22 10° ENE
Cosmos 676 Rocket 3.9 05:21:53 10° NNW 05:27:12 84° WSW 05:32:32 10° SSE
Cosmos 1933 3.2 05:27:16 63° SSW 05:27:53 86° W 05:32:00 10° N
CZ-4B R/B 3.9 05:26:13 10° N 05:28:56 32° NNW 05:28:56 32° NNW
Meteor 1-14 Rocket 4.4 05:25:23 10° N 05:31:19 77° ENE 05:37:04 10° SSE
Cosmos 921 Rocket 2.9 05:31:38 61° W 05:31:55 63° WNW 05:36:13 10° NNE
Meteor PRIRODA 3.5 05:28:53 10° NNE 05:32:34 87° WNW 05:32:57 71° SSW
IRS-1C Rocket 4.2 05:29:04 10° N 05:34:12 52° WNW 05:35:30 42° WSW
CZ-4B R/B 3.3 05:29:50 10° N 05:35:17 58° WNW 05:37:41 33° SW
SKYMED 2 3.9 05:32:18 10° SSE 05:36:36 66° ENE 05:40:56 10° N
Cosmos 2263 4.1 05:33:28 25° SSW 05:36:49 88° ESE 05:42:29 10° NNE
ATLAS 5 CENTAUR R/B 2.3 05:35:52 24° SSW 05:38:43 60° SE 05:43:56 10° NE
Lacrosse 5 rocket 1.9 05:38:28 36° NNW 05:39:19 42° NNE 05:42:46 10° E
Okean 2 Rocket 3.5 05:35:12 10° N 05:39:36 64° ENE 05:43:57 10° SSE
Cosmos 1867 3.5 05:39:59 36° WSW 05:42:15 74° NW 05:47:46 10° NE
Cosmos 1943 Rocket 2.2 05:41:28 13° SSW 05:46:21 77° ESE 05:51:56 10° NNE
Cosmos 1140 Rocket 3.4 05:44:19 10° NNW 05:49:34 86° WSW 05:54:49 10° SSE
Meteor 2-10 Rocket 3.6 05:45:22 10° S 05:50:21 75° E 05:55:26 10° NNE
Cosmos 1190 Rocket 4.5 05:49:08 31° WNW 05:50:32 36° WSW 05:55:19 10° SSW
Cosmos 1862 Rocket 3.9 05:51:20 39° W 05:51:58 42° WNW 05:56:07 10° N
RUBIN 8/PSLV 4.5 05:47:57 10° N 05:52:22 70° WNW 05:56:09 14° SSW
ERS-2 2.7 05:53:32 10° N 05:57:00 37° WNW 05:57:02 37° WNW
Okean O Rocket 2.8 05:55:17 10° N 05:58:29 24° NW 05:58:29 24° NW
Cosmos 1703 Rocket 3.4 05:55:49 10° SSW 06:00:10 82° W 06:04:35 10° N
Cosmos 614 Rocket 3.9 05:56:22 10° NNW 06:01:30 88° WSW 06:06:37 10° SSE
Meteor 1-26 Rocket 4.2 05:56:29 10° SSW 06:02:11 86° WNW 06:07:50 10° NNE
Cosmos 1782 4.2 06:02:09 10° SSE 06:05:52 41° E 06:09:38 10° NNE
Meteor 1-25 Rocket 4.2 06:00:18 10° NNW 06:06:09 83° WSW 06:12:00 10° S
Cosmos 1850 Rocket 4.0 06:03:44 10° NNW 06:09:08 90° SW 06:14:28 10° SSE
Cosmos 1624 Rocket 4.2 06:06:51 18° SW 06:10:36 51° WNW 06:15:50 10° NNE
Cosmos 2056 Rocket 3.6 06:08:01 18° SW 06:11:46 52° WNW 06:16:53 10° NNE
Meteor 1-28 Rocket 3.0 06:08:31 10° S 06:12:14 76° WSW 06:16:01 10° NNW
Cosmos 972 Rocket 4.4 06:10:58 18° SW 06:14:27 45° WNW 06:19:52 10° NNE
Cosmos 2297 Rocket 3.4 06:10:01 10° NNW 06:15:26 43° NE 06:20:48 10° ESE
NOAA 6 4.0 06:11:46 10° NNE 06:16:58 79° WNW 06:22:07 10° SSW
Cosmos 1633 4.1 06:13:58 10° N 06:17:28 40° ENE 06:20:54 10° SE
Cosmos 1954 Rocket 4.4 06:13:19 10° NW 06:18:18 42° WSW 06:23:17 10° S
SJ-6F 4.5 06:15:37 10° N 06:19:44 57° WNW 06:23:47 10° SSW
Cosmos 1745 Rocket 3.9 06:13:35 10° NNW 06:19:46 74° W 06:25:51 10° S
Feng Yun 1-1 Rocket 4.5 06:16:22 10° N 06:22:03 56° WNW 06:27:49 10° SW
Cosmos 2221 Rocket 3.6 06:18:06 10° SSW 06:22:38 63° WNW 06:27:11 10° N
Ariane Rocket 3.7 06:17:58 10° NNE 06:23:01 58° ESE 06:28:01 10° S
COSMO-SKYMED 1 2.9 06:20:34 10° S 06:24:43 44° W 06:28:54 10° NNW
Cosmos 1417 Rocket 4.4 06:19:44 10° SSW 06:25:53 66° WNW 06:32:00 10° N
USA 234 3.3 06:19:33 10° ENE 06:26:07 85° NNW 06:32:21 12° WSW
Cosmos 2219 3.3 06:20:51 10° NW 06:26:25 56° WSW 06:31:56 10° S
CZ-4 R/B 3.7 06:23:22 10° NNE 06:27:04 29° E 06:30:42 10° SSE
ADEOS II 3.1 06:23:40 10° N 06:27:55 25° WNW 06:30:55 16° WSW
Cosmos 1386 Rocket 4.4 06:23:15 10° NNW 06:29:18 80° W 06:35:23 10° S
Cosmos 1420 Rocket 4.3 06:24:49 10° SSW 06:29:57 71° ESE 06:35:09 10° NNE
Cosmos 1606 3.3 06:29:21 10° S 06:33:10 61° E 06:37:03 10° NNE
Meteor 1-31 Rocket 3.7 06:30:01 10° N 06:33:26 29° WNW 06:36:49 10° SW
Cosmos 2227 Rocket 2.6 06:29:31 10° NNW 06:35:13 68° NE 06:40:53 10° SE
Cosmos 2278 Rocket 4.4 06:36:24 10° NNW 06:37:56 11° N 06:39:28 10° N
CZ-4C R/B 2.7 06:32:55 10° SSW 06:38:16 65° SE 06:44:25 10° NE
Cosmos 2369 Rocket 3.0 06:34:40 14° WSW 06:38:50 32° NW 06:43:54 10° NNE
Radarsat Rocket 4.4 06:37:15 10° NNE 06:44:57 72° WNW 06:51:39 10° SSW
Okean-O 3.7 06:47:12 10° N 06:50:48 25° WNW 06:54:24 10° WSW
YAOGAN 1 4.4 06:48:46 10° NNE 06:52:48 36° E 06:56:48 10° SSE
Cosmos 1452 Rocket 3.7 06:48:04 10° SW 06:53:15 54° WNW 06:58:28 10° NNE
Cosmos 1656 Rocket 3.7 06:49:51 10° SW 06:55:32 71° WNW 07:01:14 10° NNE
Abrixas 3.2 06:54:52 10° WSW 06:57:39 44° S 07:00:26 10° E
Okean 1-7 3.7 06:54:41 10° SW 06:58:33 33° WNW 07:02:27 10° N
Cosmos 1741 Rocket 4.5 06:54:02 10° NW 06:58:53 39° WSW 07:03:44 10° S
ATLAS 3B R/B 3.9 06:53:04 10° SSW 07:00:16 50° ESE 07:07:12 10° NE
Meteor 1-27 Rocket 4.0 07:02:16 10° S 07:08:02 80° E 07:13:58 10° NNE
Cosmos 1536 3.0 07:04:56 10° N 07:08:57 80° E 07:12:58 10° SSE
Helios 1B rocket 2.9 07:04:57 10° SSE 07:09:01 68° ENE 07:13:10 10° N
Lacrosse 5 1.9 07:04:28 10° WSW 07:09:33 79° NNW 07:14:40 10° ENE
Cosmos 1300 Rocket 3.6 07:06:35 10° NNW 07:11:00 64° W 07:15:22 10° S
S3M 4.4 07:07:24 10° SW 07:13:21 41° WNW 07:19:17 10° N
BREEZE M DEB (TANK) 3.4 07:02:37 10° W 07:13:42 75° S 07:17:11 10° E
